Voltar ao catálogo

STARLINK-4034

AtivoComunicaçõesVLEO
NORAD 52700·PAYLOAD·🇺🇸 United States

Lançado May 18, 2022 de Cape Canaveral Space Force Station

Loading…

Próximas Passagens (próximas 24 horas)

TLE

AtualizadoSource: CelesTrak SupGP

Época: Sep 15, 2026, 01:35 UTC

1 52700C 22053AW  26258.06645833 -.00028129  00000+0 -83120-3 0  2582
2 52700  53.1602  13.1757 0001003  89.6968 228.4826 15.34400351    16

Acompanhe STARLINK-4034 em tempo real com AllMySat

Download on the App Store